Weather History for Defiance, OH

Change the Weather History Date:

Tuesday, January 7, 2014

  Actual Average Record
Temperature  
Mean Temperature -5 °F -  
Max Temperature 3 °F 31 °F 64 °F (2008)
Min Temperature -13 °F 17 °F -13 °F (1970)
Degree Days  
Heating Degree Days 70    
Moisture  
Dew Point -13 °F    
Average Humidity 68    
Maximum Humidity 73    
Minimum Humidity 62    
Precipitation  
Precipitation 0.00 in - - ()
Sea Level Pressure  
Sea Level Pressure 30.36 in    
Wind  
Wind Speed 12 mph (SW)    
Max Wind Speed 16 mph    
Max Gust Speed 25 mph    
Visibility 10 miles    
Events      
Averages and records for this station are not official NWS values.
T = Trace of Precipitation, MM = Missing Value Source: NWS Daily Summary

Daily Weather History Graph

Daily Weather History Graph

Search for Another Location

Airport:

Trip Planner

Search our weather history database for the weather conditions in past years. The results will help you decide how hot, cold, wet, or windy it might be!

Date:

Astronomy

Jan. 07, 2014 Rise Set
Actual Time 8:03 AM EST 5:24 PM EST
Civil Twilight 7:32 AM EST 5:55 PM EST
Nautical Twilight 6:58 AM EST 6:30 PM EST
Astronomical Twilight 6:24 AM EST 7:03 PM EST
Moon 11:46 AM EST (1/7) 12:00 AM EST (1/7)
Length of Visible Light 10h 22m
Length of Day
9h 21m
Waxing Crescent, 45% of the Moon is Illuminated
Jan 7
Waxing Crescent
Jan 7
First Quarter
Jan 15
Full
Jan 24
Last Quarter
Jan 30
New

Hourly Weather History & Observations

Time (EST) Temp. Windchill Dew Point Humidity Pressure Visibility Wind Dir Wind Speed Gust Speed Precip Events Conditions
12:53 AM -11.9 °F -32.0 °F -20.0 °F 67% 30.28 in 10.0 mi WSW 11.5 mph 20.7 mph N/A   Clear
1:53 AM -11.9 °F -33.0 °F -20.0 °F 67% 30.29 in 10.0 mi WSW 12.7 mph 20.7 mph N/A   Clear
2:53 AM -11.9 °F -32.0 °F -20.0 °F 67% 30.31 in 10.0 mi WSW 11.5 mph 20.7 mph N/A   Clear
3:53 AM -11.0 °F -30.9 °F -18.9 °F 68% 30.30 in 10.0 mi SW 11.5 mph 21.9 mph N/A   Clear
4:53 AM -13.0 °F -31.3 °F -20.0 °F 71% 30.31 in 10.0 mi SW 9.2 mph - N/A   Clear
5:53 AM -11.9 °F -33.8 °F -18.9 °F 71% 30.32 in 10.0 mi SW 13.8 mph - N/A   Clear
6:53 AM -13.0 °F -33.4 °F -20.0 °F 71% 30.34 in 10.0 mi SW 11.5 mph - N/A   Clear
7:53 AM -11.9 °F -32.0 °F -18.9 °F 71% 30.34 in 10.0 mi SW 11.5 mph - N/A   Clear
8:53 AM -11.0 °F -32.7 °F -18.0 °F 71% 30.36 in 10.0 mi SW 13.8 mph 20.7 mph N/A   Clear
9:53 AM -9.0 °F -30.9 °F -17.0 °F 68% 30.39 in 10.0 mi SW 15.0 mph 23.0 mph N/A   Clear
10:53 AM -7.1 °F -25.9 °F -16.1 °F 65% 30.41 in 10.0 mi SW 11.5 mph - N/A   Clear
11:53 AM -5.1 °F -23.5 °F -14.1 °F 65% 30.39 in 10.0 mi SW 11.5 mph 20.7 mph N/A   Clear
12:53 PM -4.0 °F -23.7 °F -13.0 °F 65% 30.37 in 10.0 mi SW 13.8 mph 19.6 mph N/A   Clear
1:53 PM -2.0 °F -20.5 °F -11.9 °F 63% 30.36 in 10.0 mi SW 12.7 mph 23.0 mph N/A   Clear
2:53 PM -0.9 °F -21.2 °F -11.0 °F 62% 30.35 in 10.0 mi SW 16.1 mph 25.3 mph N/A   Partly Cloudy
3:53 PM 1.0 °F -17.3 °F -9.0 °F 63% 30.37 in 10.0 mi SW 13.8 mph 20.7 mph N/A   Clear
4:53 PM -0.0 °F -18.0 °F -9.0 °F 66% 30.36 in 10.0 mi SW 12.7 mph 20.7 mph N/A   Clear
5:53 PM -0.0 °F -17.1 °F -9.0 °F 66% 30.37 in 10.0 mi SW 11.5 mph - N/A   Clear
6:53 PM 1.0 °F -14.0 °F -8.0 °F 66% 30.37 in 10.0 mi SW 9.2 mph - N/A   Clear
7:53 PM -0.9 °F -15.3 °F -9.0 °F 69% 30.39 in 10.0 mi SSW 8.1 mph - N/A   Clear
8:53 PM 1.0 °F -14.0 °F -6.0 °F 72% 30.40 in 10.0 mi SW 9.2 mph - N/A   Clear
9:53 PM 1.9 °F -11.8 °F -5.1 °F 72% 30.40 in 10.0 mi SW 8.1 mph - N/A   Clear
10:53 PM 3.0 °F -10.5 °F -4.0 °F 73% 30.40 in 10.0 mi SW 8.1 mph - N/A   Clear
11:53 PM 3.0 °F -9.3 °F -4.0 °F 73% 30.40 in 10.0 mi SSW 6.9 mph - N/A   Clear